Hourly Data Report for July 11, 2021

LYNN LAKE
MANITOBA
Current Station Operator: NAVCAN

56°51'50.000" N
101°04'34.000" W
356.60 m
5061645
71078
YYL

Download Data

Hourly Data (July 2021)
Hourly Data Report for July 11, 2021
TIME
LST
Temp Definition
°C
Dew Point Definition
°C
Rel Hum Definition
%
Precip. Amount Definition
mm

Wind Dir Definition
10's deg

Wind Spd Definition
km/h
Visibility Definition
km
Stn Press Definition
kPa
Hmdx Definition


Wind Chill Definition


Weather Definition


00:00 19.5 14.2 71 0.0 13 9 16.1 97.03     LegendNANA
01:00 19.1 15.2 78 0.0 14 11 16.1 96.95     LegendNANA
02:00 18.3 15.0 81 0.0 12 11 16.1 96.86     LegendNANA
03:00 18.0 15.3 84 0.0 12 11 16.1 96.78     LegendNANA
04:00 17.4 15.6 89 0.0 LegendMM 4 16.1 96.76     LegendNANA
05:00 18.1 15.8 86 0.0 17 15 16.1 96.75     LegendNANA
06:00 18.5 16.3 87 0.0 2 15 16.1 96.59     Rain
07:00 18.6 16.5 87 0.0 11 8 16.1 96.57     LegendNANA
08:00 20.6 17.4 82 0.0 13 17 16.1 96.53 26   LegendNANA
09:00 23.4 17.5 69 0.0 14 17 16.1 96.46 29   LegendNANA
10:00 25.1 17.0 60 0.0 19 13 16.1 96.40 30   LegendNANA
11:00 27.3 17.5 55 0.0 22 21 11.3 96.39 33   LegendNANA
12:00 21.6 18.9 85 0.8 LegendMM 4 6.4 96.40 28   Rain
13:00 24.0 17.6 67 0.0 19 9 4.8 96.34 30   Haze
14:00 25.9 16.8 57 0.0 23 17 4.0 96.28 31   Haze
15:00 28.2 15.6 46 0.0 23 21 11.3 96.24 33   LegendNANA
16:00 28.4 14.3 41 0.0 27 18 14.5 96.23 32   LegendNANA
17:00 28.5 11.6 35 0.0 27 18 16.1 96.23 31   LegendNANA
18:00 27.1 11.1 36 0.0 26 22 9.7 96.24 29   Haze
19:00 26.6 11.9 39 0.0 29 21 8.1 96.27 29   Haze
20:00 23.0 13.6 55 0.0 32 21 16.1 96.38 26   LegendNANA
21:00 21.2 13.4 61 0.0 29 17 16.1 96.38     LegendNANA
22:00 19.3 13.6 69 0.0 28 11 16.1 96.38     LegendNANA
23:00 18.4 13.5 73 0.0 28 13 16.1 96.38     LegendNANA

Notes on Data Quality.

Legend

  • E = Estimated
  • M = Missing
  • NA = Not Available*
  • [empty] = Indicates an unobserved value
Date modified: